GAOFEN-3

Last updated on Thu Nov 21 2024 00:02:27 GMT+0000 (Coordinated Universal Time)

1 41727U 16049A 24325.60401352 .00000176 00000+0 66677-4 0 9997 2 41727 98.4058 330.9672 0001258 90.2157 269.9177 14.42222789435977
UTC large
Height (km)
Speed (km/s)
/
Latitude / Longitude
Inclination (degrees)
Orbital Period (minutes)
Azimuth
Elevation
Range (km)
Doppler Factor

Next 0 passes for location: London (51.5072 / 0.1276)

Sorry there are no passes over London.